This is the latest recevied weather packets stored in our database for station/object 7M1JBF-11. If no packets are shown the sender has not sent any weather packets the latest 10 day(s).
| Time | Temp. | Humidity | Pressure | Rain* | Wind** | Luminosity | Snow |
|---|---|---|---|---|---|---|---|
| 1777687046 | 29.44° C | 100% | 1003.6 hPa | 0 mm | - | - | - |
| 1777686444 | 29.44° C | 100% | 1003.6 hPa | 0 mm | - | - | - |
| 1777685843 | 28.89° C | 100% | 1003.5 hPa | 0 mm | - | - | - |
| 1777685242 | 28.33° C | 100% | 1003.4 hPa | 0 mm | - | - | - |
| 1777684640 | 28.33° C | 100% | 1003.3 hPa | 0 mm | - | - | - |
| 1777684039 | 28.33° C | 100% | 1003.3 hPa | 0 mm | - | - | - |
| 1777683438 | 28.33° C | 100% | 1003.4 hPa | 0 mm | - | - | - |
| 1777682836 | 29.44° C | 100% | 1003.3 hPa | 0 mm | - | - | - |
| 1777682235 | 30° C | 100% | 1003.2 hPa | 0 mm | - | - | - |
| 1777681634 | 31.67° C | 100% | 1003.1 hPa | 0 mm | - | - | - |
| 1777681032 | 31.67° C | 100% | 1002.9 hPa | 0 mm | - | - | - |
| 1777680431 | 31.67° C | 100% | 1003 hPa | 0 mm | - | - | - |
| 1777679228 | 31.11° C | 100% | 1002.8 hPa | 0 mm | - | - | - |
| 1777678627 | 30.56° C | 100% | 1002.6 hPa | 0 mm | - | - | - |
| 1777678025 | 30° C | 100% | 1002.3 hPa | 0 mm | - | - | - |
| 1777677424 | 30° C | 100% | 1002.3 hPa | 0 mm | - | - | - |
| 1777676823 | 29.44° C | 100% | 1001.9 hPa | 0 mm | - | - | - |
| 1777676221 | 28.33° C | 100% | 1001.7 hPa | 0 mm | - | - | - |
| 1777675620 | 27.78° C | 100% | 1001.7 hPa | 0 mm | - | - | - |
| 1777675018 | 26.67° C | 100% | 1001.4 hPa | 0 mm | - | - | - |
| 1777674418 | 26.11° C | 100% | 1001.1 hPa | 0 mm | - | - | - |
| 1777673816 | 26.11° C | 100% | 1001 hPa | 0 mm | - | - | - |
| 1777673214 | 25.56° C | 100% | 1000.9 hPa | 0 mm | - | - | - |
| 1777672613 | 24.44° C | 100% | 1000.6 hPa | 0 mm | - | - | - |
| 1777672012 | 23.89° C | 100% | 1000.5 hPa | 0 mm | - | - | - |
* Rain since midnight (hover to see other rain measurements)
** Current wind speed in m/s (hover to see current wind gust speed)